Location: Unspecified
(0.0000°N, 0.0000°E)
Time: 22:30:11
(UTC+00:00)

S-56A Canister/Altair - Visible Passes

Search period start: 30 August 2016 00:00
Search period end: 09 September 2016 00:00
Orbit: 640 x 2495 km, 38.9° (Epoch: 29 August)

Date Brightness Start Highest point End Pass type
(mag) Time Alt. Az. Time Alt. Az. Time Alt. Az.
30 Aug 10.3 18:10:32 10° S 18:15:58 17° SE 18:22:35 10° E visible
30 Aug 9.3 20:10:59 10° SW 20:20:57 73° SE 20:22:27 67° E visible
30 Aug 11.0 22:16:34 10° WSW 22:20:00 22° W 22:20:00 22° W visible
31 Aug 9.3 19:38:47 10° SW 19:48:03 63° SE 19:53:12 40° ENE visible
31 Aug 10.5 21:43:38 10° WSW 21:50:46 38° WNW 21:50:46 38° WNW visible
01 Sep 9.3 19:06:43 10° SSW 19:15:17 53° SE 19:24:07 20° ENE visible
01 Sep 10.1 21:10:52 10° WSW 21:21:14 50° NW 21:21:42 50° NNW visible
01 Sep11.823:42:20NNE23:42:20NNE23:19:18WNWvisible
02 Sep 9.4 18:34:45 10° SSW 18:42:35 44° SE 18:53:57 10° ENE visible
02 Sep 9.9 20:38:15 10° WSW 20:48:06 56° NW 20:52:50 40° NNE visible
02 Sep 11.4 22:48:00 10° WNW 23:11:15 - NNE 22:50:26 14° WNW visible
03 Sep 11.0 05:23:12 10° NNW 05:31:13 22° NNE 05:37:24 10° ENE visible
03 Sep 9.6 20:05:44 10° WSW 20:15:03 62° NW 20:24:05 23° NNE visible
03 Sep 11.2 22:14:22 10° WNW 22:21:42 21° NW 22:21:42 21° NW visible
04 Sep 11.1 04:50:13 10° NNW 04:58:13 20° NNE 05:04:32 10° ENE visible
04 Sep 9.4 19:33:21 10° WSW 19:42:07 70° NW 19:55:12 10° NE visible
04 Sep 11.0 21:40:59 10° WNW 21:49:36 23° NNW 21:53:02 21° N visible
05 Sep 11.2 04:17:13 10° NNW 04:25:06 19° NNE 04:31:30 10° ENE visible
05 Sep 9.2 19:01:05 10° SW 19:09:17 80° NW 19:21:49 10° NE visible
05 Sep 10.9 21:07:49 10° W 21:16:19 26° NNW 21:24:20 15° N visible
06 Sep 11.3 03:44:16 10° N 03:51:53 17° NNE 03:58:16 10° ENE visible
06 Sep 9.0 18:28:54 10° SW 18:36:33 89° SE 18:48:24 10° NE visible
06 Sep 10.8 20:34:50 10° W 20:43:07 28° NNW 20:53:56 10° NNE visible
07 Sep 11.4 03:11:20 10° N 03:18:33 16° NNE 03:24:49 10° ENE visible
07 Sep 10.0 05:14:57 10° NW 05:26:38 48° NE 05:34:33 10° ESE visible
07 Sep 10.6 20:02:01 10° W 20:10:00 31° NNW 20:20:49 10° NNE visible
07 Sep 11.7 22:17:49 10° NNW 22:19:26 10° NNW 22:21:05 10° N visible
08 Sep 11.5 02:38:31 10° N 02:45:09 14° NNE 02:51:05 10° NE visible
08 Sep 10.2 04:41:43 10° NNW 04:53:42 43° NE 05:02:04 10° ESE visible
08 Sep 10.4 19:29:21 10° W 19:37:00 34° NNW 19:47:41 10° NNE visible
08 Sep 11.6 21:42:42 10° NW 21:45:53 11° NNW 21:49:16 10° N visible
